FW1659 Weather Reports


time (UTC)temp
F
wind
direction
speed
knots
gust
knots
rain 1hr
in
rain 24hr
in
rain mn
in
humidity
%
barometer
mb
20260510164501 82 101 7.8 10.4 0.00 0.00 0.00 84 1014.5
20260510163106 83 96 6.1 8.7 0.00 0.00 0.00 83 1014.4
20260510161601 83 93 5.2 8.7 0.00 0.00 0.00 84 1014.4
20260510160059 83 90 5.2 8.7 0.00 0.00 0.00 83 1014.5
20260510154556 83 98 5.2 7.8 0.00 0.00 0.00 83 1014.2
20260510153055 82 129 3.5 6.1 0.00 0.00 0.00 86 1013.9
20260510151553 80 125 3.5 6.1 0.00 0.00 0.00 87 1013.9
20260510150046 80 136 6.1 7.8 0.00 0.00 0.00 88 1013.9
20260510144548 80 145 3.5 7.8 0.00 0.00 0.00 89 1013.8
20260510143041 79 137 3.5 6.1 0.00 0.00 0.00 90 1013.7
20260510141538 79 131 5.2 7.8 0.00 0.00 0.00 90 1013.5
20260510140032 79 164 4.3 7.8 0.00 0.00 0.00 91 1013.3
20260510134534 79 161 5.2 7.8 0.00 0.00 0.00 91 1013.1
20260510133033 78 134 4.3 7.8 0.00 0.00 0.00 92 1013.0
20260510131529 78 142 3.5 7.0 0.00 0.00 0.00 92 1012.9
20260510130028 78 149 4.3 7.8 0.00 0.00 0.00 92 1012.6
20260510124526 78 153 7.0 8.7 0.00 0.00 0.00 92 1012.4
20260510123029 78 165 5.2 8.7 0.00 0.00 0.00 92 1012.2
20260510121524 78 155 7.0 8.7 0.00 0.00 0.00 92 1012.1
20260510120024 78 125 4.3 7.0 0.00 0.00 0.00 92 1011.9
20260510114524 78 150 4.3 7.0 0.00 0.08 0.00 92 1011.9
20260510113023 78 171 4.3 7.8 0.00 0.08 0.00 91 1011.9
20260510111522 78 157 6.1 7.8 0.00 0.08 0.00 92 1011.9
20260510110032 78 135 3.5 7.0 0.00 0.08 0.00 91 1012.0
20260510104523 78 140 5.2 8.7 0.00 0.15 0.00 92 1012.1
20260510103023 78 147 4.3 7.8 0.00 0.15 0.00 91 1012.0
20260510101519 78 140 5.2 7.8 0.00 0.15 0.00 91 1011.9
20260510100018 78 148 5.2 7.8 0.00 0.15 0.00 91 1011.9
20260510094518 78 117 2.6 4.3 0.00 0.16 0.00 91 1011.9
20260510093018 78 119 3.5 7.0 0.00 0.16 0.00 90 1011.9
20260510091515 78 138 6.1 9.6 0.00 0.16 0.00 90 1011.9
20260510090015 78 139 4.3 7.0 0.00 0.16 0.00 90 1011.8
20260510084514 78 166 5.2 7.8 0.00 0.16 0.00 89 1011.7
20260510083017 78 151 4.3 7.8 0.00 0.16 0.00 89 1011.9
20260510081513 78 150 5.2 8.7 0.00 0.16 0.00 88 1011.9
20260510080014 78 163 7.0 9.6 0.00 0.16 0.00 88 1011.8
20260510074511 78 128 7.0 10.4 0.00 0.17 0.00 88 1011.9
20260510073009 78 140 7.0 9.6 0.00 0.17 0.00 88 1012.0
20260510071508 78 145 6.1 10.4 0.00 0.17 0.00 88 1012.0
20260510070012 78 167 7.8 13.0 0.00 0.17 0.00 88 1012.0
20260510064505 78 150 7.8 11.3 0.00 0.18 0.00 89 1012.1
20260510063004 78 132 7.0 9.6 0.00 0.18 0.00 89 1012.1
20260510061502 78 165 7.0 10.4 0.00 0.18 0.00 89 1012.0
20260510060004 79 154 7.8 12.2 0.00 0.18 0.00 88 1011.9
20260510054601 79 141 8.7 12.2 0.00 0.18 0.00 88 1012.3
20260510053059 79 138 8.7 12.2 0.00 0.18 0.00 87 1012.4
20260510051602 79 130 6.1 10.4 0.00 0.18 0.00 86 1012.3
20260510050053 79 134 7.8 10.4 0.00 0.18 0.00 86 1011.9
20260510044555 79 132 7.8 9.6 0.00 0.18 0.18 86 1011.8
20260510043100 79 165 5.2 9.6 0.00 0.18 0.18 85 1011.5
20260510041608 79 161 8.7 12.2 0.00 0.18 0.18 85 1011.2
20260510040051 79 150 9.6 13.9 0.00 0.18 0.18 84 1011.1
20260510034551 79 164 9.6 12.2 0.00 0.18 0.18 84 1011.0
20260510033050 79 162 11.3 15.6 0.00 0.18 0.18 83 1010.6
20260510031555 80 180 11.3 16.5 0.00 0.18 0.18 81 1010.7
20260510030051 80 142 10.4 13.9 0.00 0.18 0.18 80 1010.9
20260510024556 80 155 11.3 14.8 0.00 0.18 0.18 79 1010.7
20260510023048 80 128 10.4 14.8 0.00 0.18 0.18 77 1010.8
20260510021546 80 128 9.6 13.0 0.00 0.18 0.18 76 1010.6
20260510020051 81 135 7.8 11.3 0.00 0.18 0.18 76 1010.4
20260510014545 81 139 8.7 11.3 0.00 0.18 0.18 75 1010.3
20260510013053 81 139 8.7 12.2 0.00 0.18 0.18 75 1009.9
20260510011544 82 132 8.7 12.2 0.00 0.18 0.18 76 1009.7
20260510010059 82 142 7.8 13.9 0.00 0.18 0.18 76 1009.7
20260510004543 82 136 10.4 13.0 0.00 0.18 0.18 76 1009.7
20260510003043 83 135 9.6 12.2 0.00 0.18 0.18 77 1009.6
20260510001543 83 128 10.4 13.0 0.00 0.18 0.18 76 1009.6
20260510000043 83 134 9.6 13.0 0.00 0.18 0.18 76 1009.6
20260509234557 83 131 9.6 13.0 0.00 0.18 0.18 76 1009.6
20260509233039 83 153 10.4 13.9 0.00 0.18 0.18 76 1009.6
20260509231538 83 138 11.3 15.6 0.00 0.18 0.18 76 1009.7
20260509230038 84 153 11.3 15.6 0.00 0.18 0.18 76 1009.8
20260509224538 84 140 10.4 13.0 0.00 0.18 0.18 75 1009.6
20260509223037 84 128 9.6 13.0 0.00 0.18 0.18 76 1009.7
20260509221559 84 161 8.7 13.9 0.00 0.18 0.18 77 1009.5
20260509220035 85 138 13.9 16.5 0.00 0.18 0.18 76 1009.5
20260509214536 86 146 6.1 8.7 0.00 0.18 0.18 74 1009.6
20260509213033 86 132 7.0 8.7 0.00 0.18 0.18 73 1009.4
20260509211532 86 137 6.1 9.6 0.00 0.18 0.18 77 1009.4
20260509210030 86 132 5.2 7.8 0.00 0.18 0.18 76 1009.5
20260509204527 86 140 4.3 7.8 0.00 0.18 0.18 77 1009.7
20260509203028 85 142 4.3 7.8 0.00 0.18 0.18 79 1009.7
20260509201523 84 144 6.1 8.7 0.00 0.18 0.18 78 1010.0
20260509200023 85 134 5.2 7.8 0.00 0.18 0.18 77 1010.0
20260509194522 85 134 3.5 6.1 0.00 0.18 0.18 75 1010.1
20260509193020 84 121 2.6 7.8 0.00 0.18 0.18 79 1010.2
20260509191517 84 115 3.5 7.0 0.00 0.18 0.18 79 1010.4
20260509190025 83 87 4.3 7.8 0.00 0.18 0.18 79 1010.3
20260509184526 82 87 3.5 7.0 0.00 0.18 0.18 79 1010.5
20260509183017 82 81 5.2 7.8 0.00 0.18 0.18 79 1010.6
20260509181512 82 95 4.3 8.7 0.00 0.18 0.18 79 1010.9
20260509180011 81 109 5.2 7.0 0.00 0.18 0.18 78 1010.9
20260509174510 81 105 5.2 7.0 0.00 0.18 0.18 77 1011.0
20260509173012 81 124 2.6 3.5 0.00 0.18 0.18 78 1010.7
20260509171507 80 153 1.7 7.8 0.00 0.18 0.18 80 1010.8
20260509170012 82 136 4.3 7.8 0.00 0.18 0.18 79 1011.1